Regional Weather Roundup
Issued by NWS

Home | Current Version | Previous Version | Graphics & Text | Print | Product List | Glossary On
Versions: 1 2 3 4 5 6 7 8 9 10 11 12 13 14 15 16 17 18 19 20 21 22 23 24 25 26 27 28 29 30 31 32 33 34 35 36 37 38 39 40 41 42 43 44 45 46 47 48 49 50
000
ASUS43 KFSD 190402
RWRSD

WEATHER ROUNDUP FOR SOUTH DAKOTA
NATIONAL WEATHER SERVICE SIOUX FALLS SD
1000 PM CST WED JAN 18 2017

NOTE: "FAIR" INDICATES FEW OR NO CLOUDS BELOW 12,000 FEET WITH NO
SIGNIFICANT WEATHER AND/OR OBSTRUCTIONS TO VISIBILITY.


SDZ001>005-009-010-012>017-190500-
NORTHWEST AND NORTH CENTRAL SOUTH DAKOTA

CITY           SKY/WX    TMP DP  RH WIND       PRES   REMARKS
BUFFALO          N/A     34  22  61 SW3       29.52F
FAITH            N/A     24  19  81 S10       29.59F WCI  14
MOBRIDGE       CLOUDY    22  16  78 SE7       29.61F WCI  13
$$

SDZ012>016-024>037-041>051-057-063-072>074-190500-
SOUTHWEST AND SOUTH CENTRAL SOUTH DAKOTA

CITY           SKY/WX    TMP DP  RH WIND       PRES   REMARKS
RAPID CTY ARPT CLOUDY    31  23  72 N13       29.57F WCI  21
PIERRE         CLOUDY    21  17  84 CALM      29.62F
CUSTER         CLOUDY    32  17  54 S3        29.63F
ELLSWORTH AFB  CLOUDY    28  23  80 N14       29.57F WCI  17
PHILIP         CLOUDY    19  17  92 CALM      29.61F
PINE RIDGE     CLOUDY    37  27  67 S5        29.62F
SPEARFISH      FAIR      37  25  60 W6        29.59F
WINNER         FAIR      41  26  55 SW14      29.64F
$$

SDZ004>011-016>023-039-040-190500-
NORTHEAST SOUTH DAKOTA

CITY           SKY/WX    TMP DP  RH WIND       PRES   REMARKS
ABERDEEN       CLOUDY    17  14  88 N3        29.69F FOG
WATERTOWN      FOG       28  27  96 S9        29.70F VSB 1   WCI  19
BROOKINGS      CLOUDY    34  33  96 S8        29.72F WCI  27
SISSETON         N/A     27  24  89 SE5       29.71S WCI  22
$$

SDZ017-020-022-023-036>040-048>070-190500-
SOUTHEAST SOUTH DAKOTA

CITY           SKY/WX    TMP DP  RH WIND       PRES   REMARKS
SIOUX FALLS    CLEAR     38  37  97 S12       29.76F
HURON          CLOUDY    35  33  92 S14       29.68F WCI  26
CHAMBERLAIN    CLOUDY    29  26  85 SE7       29.66S WCI  22
MITCHELL       CLOUDY    35  34  96 S9        29.71F WCI  28
YANKTON        CLEAR     37  34  87 S9        29.76R
$$

ABBREVIATIONS USED IN REMARKS
   TC - TEMPERATURE IN CELSIUS
  WCI - WIND CHILL INDEX
   HX - HEAT INDEX
  VSB - VISIBILITY





USA.gov is the U.S. government's official web portal to all federal, state and local government web resources and services.